weather.gov     
National Weather Service

Terminal Aerodrome Forecast
NWS Homepage
This page is being discontinued on March 12, 2014.
The same data is available at this site. Please update your bookmarks.
Thank you, and we apologize for the inconvenience.
Please send an email to SR-SRH.Webmaster@noaa.gov with any concerns.


Current Version
Previous Version:    01  02  03  04  05  06  07  08  09  10  11  12  13  14  15  16  17  18  19  
[Printable]
520
FTUS42 KMLB 200500
TAFSFB
TAF
KSFB 200528Z 2006/2106 VRB02KT P6SM BKN050
      TEMPO 2010/2012 6SM MIFG BR
     FM201400 13006KT P6SM SCT040 SCT250
     FM201900 10006KT P6SM SCT050 BKN250
     FM210100 VRB02KT P6SM FEW040 BKN250=


U.S. Dept. of Commerce
NOAA National Weather Service
1325 East West Highway
Silver Spring, MD 20910
E-mail: w-nws.webmaster@noaa.gov
Page last modified: May 16, 2007
NATIONAL WEATHER SERVICE: for Safety, for Work, for Fun - FOR LIFE